TimeEST,TemperatureF,Dew PointF,Humidity,Sea Level PressureIn,VisibilityMPH,Wind Direction,Wind SpeedMPH,Gust SpeedMPH,PrecipitationIn,Events,Conditions,WindDirDegrees,DateUTC
12:15 AM,30.9,28.8,92,29.90,2.0,SSE,3.5,-,N/A,Snow,Light Snow,160,2013-02-24 05:15:00
12:35 AM,30.9,28.6,91,29.90,2.0,SSE,3.5,-,N/A,Snow,Light Snow,160,2013-02-24 05:35:00
12:55 AM,30.7,28.4,91,29.89,1.8,SSE,3.5,-,N/A,Snow,Light Snow,150,2013-02-24 05:55:00
1:15 AM,30.7,28.4,91,29.89,2.0,Calm,Calm,-,N/A,Snow,Light Snow,0,2013-02-24 06:15:00
1:35 AM,30.7,28.4,91,29.89,2.0,Calm,Calm,-,N/A,Snow,Light Snow,0,2013-02-24 06:35:00
1:55 AM,30.7,28.4,91,29.87,2.0,Calm,Calm,-,N/A,Snow,Light Snow,0,2013-02-24 06:55:00
2:15 AM,30.6,28.4,92,29.86,2.0,Calm,Calm,-,N/A,Snow,Light Snow,0,2013-02-24 07:15:00
2:35 AM,30.6,28.4,92,29.86,2.0,Calm,Calm,-,N/A,Snow,Light Snow,0,2013-02-24 07:35:00
2:55 AM,30.6,28.4,92,29.84,3.0,Calm,Calm,-,N/A,Snow,Light Snow,0,2013-02-24 07:55:00
3:15 AM,30.6,28.4,92,29.83,3.0,Calm,Calm,-,N/A,Snow,Light Snow,0,2013-02-24 08:15:00
3:35 AM,30.2,28.0,92,29.83,5.0,Calm,Calm,-,N/A,,Unknown,0,2013-02-24 08:35:00
3:55 AM,29.8,27.5,91,29.82,5.0,Calm,Calm,-,N/A,,Mist,0,2013-02-24 08:55:00
4:15 AM,30.2,28.2,92,29.82,3.0,Calm,Calm,-,N/A,Snow,Light Snow,0,2013-02-24 09:15:00
4:35 AM,29.8,27.7,92,29.82,5.0,Calm,Calm,-,N/A,Snow,Light Snow,0,2013-02-24 09:35:00
4:55 AM,30.0,27.7,91,29.82,7.0,Calm,Calm,-,N/A,,Unknown,0,2013-02-24 09:55:00
5:15 AM,29.5,27.5,92,29.82,7.0,Calm,Calm,-,N/A,,Unknown,0,2013-02-24 10:15:00
5:35 AM,30.0,27.7,91,29.82,5.0,Calm,Calm,-,N/A,,Mist,0,2013-02-24 10:35:00
5:55 AM,30.2,28.0,92,29.82,4.0,Calm,Calm,-,N/A,Snow,Light Snow,0,2013-02-24 10:55:00
6:15 AM,30.2,28.0,92,29.82,2.5,Calm,Calm,-,N/A,Snow,Light Snow,0,2013-02-24 11:15:00
6:35 AM,29.8,27.5,91,29.82,1.5,Calm,Calm,-,N/A,Snow,Light Snow,0,2013-02-24 11:35:00
7:15 AM,30.2,28.2,92,29.82,2.0,Calm,Calm,-,N/A,Snow,Light Snow,0,2013-02-24 12:15:00
7:35 AM,30.2,28.0,92,29.82,1.2,Calm,Calm,-,N/A,Snow,Light Snow,0,2013-02-24 12:35:00
7:55 AM,30.2,28.0,92,29.82,1.8,Calm,Calm,-,N/A,Snow,Light Snow,0,2013-02-24 12:55:00
8:15 AM,30.7,28.4,91,29.81,2.5,Calm,Calm,-,N/A,Snow,Light Snow,0,2013-02-24 13:15:00
8:35 AM,30.7,28.6,92,29.81,4.0,Calm,Calm,-,N/A,,Mist,0,2013-02-24 13:35:00
8:55 AM,31.1,28.9,92,29.81,2.5,Calm,Calm,-,N/A,Snow,Light Snow,0,2013-02-24 13:55:00
9:15 AM,31.1,28.9,92,29.81,1.5,Calm,Calm,-,N/A,Snow,Light Snow,0,2013-02-24 14:15:00
9:35 AM,31.1,28.4,90,29.80,2.5,Calm,Calm,-,N/A,Snow,Light Snow,0,2013-02-24 14:35:00
9:55 AM,31.6,29.1,90,29.79,4.0,Calm,Calm,-,N/A,,Mist,0,2013-02-24 14:55:00
10:15 AM,32.0,29.1,89,29.79,4.0,Calm,Calm,-,N/A,,Mist,0,2013-02-24 15:15:00
10:35 AM,32.0,28.4,87,29.79,2.0,Calm,Calm,-,N/A,Rain,Light Rain,0,2013-02-24 15:35:00
10:55 AM,32.0,29.1,89,29.79,1.8,Calm,Calm,-,N/A,Snow,Light Snow,0,2013-02-24 15:55:00
11:15 AM,32.2,29.3,89,29.78,2.5,Calm,Calm,-,N/A,Snow,Light Snow,0,2013-02-24 16:15:00
11:35 AM,32.4,29.1,88,29.78,4.0,Calm,Calm,-,N/A,,Mist,0,2013-02-24 16:35:00
11:55 AM,32.5,28.4,85,29.78,10.0,Calm,Calm,-,N/A,,Unknown,0,2013-02-24 16:55:00
12:15 PM,32.9,28.4,84,29.78,10.0,Calm,Calm,-,N/A,,Unknown,0,2013-02-24 17:15:00
12:35 PM,33.3,29.1,85,29.77,7.0,Calm,Calm,-,N/A,,Unknown,0,2013-02-24 17:35:00
12:55 PM,33.3,29.7,87,29.76,7.0,Calm,Calm,-,N/A,,Unknown,0,2013-02-24 17:55:00
1:15 PM,33.3,29.3,85,29.76,7.0,Calm,Calm,-,N/A,,Unknown,0,2013-02-24 18:15:00
1:35 PM,33.3,29.1,85,29.76,3.0,Calm,Calm,-,N/A,Snow,Light Snow,0,2013-02-24 18:35:00
1:55 PM,33.6,29.1,84,29.76,7.0,NE,3.5,-,N/A,Snow,Light Snow,40,2013-02-24 18:55:00
2:15 PM,33.3,28.8,84,29.75,10.0,ENE,3.5,-,N/A,,Unknown,60,2013-02-24 19:15:00
2:35 PM,33.3,28.8,84,29.75,10.0,Calm,Calm,-,N/A,,Unknown,0,2013-02-24 19:35:00
2:55 PM,33.3,29.1,85,29.76,7.0,Calm,Calm,-,N/A,Snow,Light Snow,0,2013-02-24 19:55:00
3:15 PM,33.3,29.1,85,29.76,5.0,Calm,Calm,-,N/A,Snow,Light Snow,0,2013-02-24 20:15:00
3:35 PM,33.3,29.7,87,29.76,2.0,Calm,Calm,-,N/A,,Unknown,0,2013-02-24 20:35:00
3:55 PM,33.3,30.2,89,29.76,1.5,Calm,Calm,-,N/A,Snow,Light Snow,0,2013-02-24 20:55:00
4:15 PM,33.3,30.6,90,29.76,1.8,Calm,Calm,-,N/A,Snow,Light Snow,0,2013-02-24 21:15:00
4:35 PM,33.1,30.9,92,29.76,1.0,Calm,Calm,-,N/A,Snow,Light Snow,0,2013-02-24 21:35:00
4:55 PM,32.9,30.7,92,29.76,1.2,Calm,Calm,-,N/A,Snow,Light Snow,0,2013-02-24 21:55:00
5:15 PM,32.9,30.7,92,29.77,1.8,Calm,Calm,-,N/A,Snow,Light Snow,0,2013-02-24 22:15:00
5:35 PM,32.9,30.9,92,29.77,2.0,Calm,Calm,-,N/A,Snow,Light Snow,0,2013-02-24 22:35:00
5:55 PM,32.7,30.9,93,29.78,4.0,NNW,4.6,-,N/A,Snow,Light Snow,340,2013-02-24 22:55:00
6:15 PM,32.9,30.2,90,29.79,3.0,NW,5.8,-,N/A,Snow,Light Snow,320,2013-02-24 23:15:00
6:35 PM,32.4,29.3,88,29.80,2.0,WNW,5.8,-,N/A,Snow,Light Snow,300,2013-02-24 23:35:00
6:55 PM,32.0,28.4,87,29.81,2.0,NW,9.2,-,N/A,Snow,Light Snow,310,2013-02-24 23:55:00
7:15 PM,31.8,27.3,83,29.81,3.0,NW,8.1,-,N/A,Snow,Light Snow,310,2013-02-25 00:15:00
7:35 PM,31.5,27.5,85,29.82,2.5,NW,8.1,-,N/A,Snow,Light Snow,310,2013-02-25 00:35:00
7:55 PM,31.1,27.5,87,29.83,5.0,WNW,5.8,-,N/A,Snow,Light Snow,300,2013-02-25 00:55:00
8:15 PM,31.1,27.7,87,29.84,7.0,Calm,Calm,-,N/A,Snow,Light Snow,0,2013-02-25 01:15:00
8:35 PM,30.9,27.5,87,29.85,5.0,WNW,3.5,-,N/A,Snow,Light Snow,300,2013-02-25 01:35:00
8:55 PM,30.9,27.3,86,29.86,5.0,WNW,3.5,-,N/A,Snow,Light Snow,300,2013-02-25 01:55:00
9:15 PM,30.7,27.3,87,29.86,5.0,WNW,3.5,-,N/A,Snow,Light Snow,290,2013-02-25 02:15:00
9:35 PM,30.6,27.0,86,29.86,7.0,WNW,3.5,-,N/A,,Unknown,300,2013-02-25 02:35:00
9:55 PM,30.6,26.6,85,29.86,7.0,WNW,3.5,-,N/A,Snow,Light Snow,300,2013-02-25 02:55:00
10:15 PM,30.4,26.4,85,29.87,5.0,NW,3.5,-,N/A,Snow,Light Snow,310,2013-02-25 03:15:00
10:35 PM,30.2,26.4,86,29.87,3.0,NW,3.5,-,N/A,Snow,Light Snow,310,2013-02-25 03:35:00
10:55 PM,29.8,26.1,86,29.87,4.0,NW,3.5,-,N/A,Snow,Light Snow,310,2013-02-25 03:55:00
11:15 PM,29.7,25.7,85,29.88,7.0,NW,4.6,-,N/A,,Unknown,310,2013-02-25 04:15:00
11:35 PM,29.3,25.5,86,29.88,10.0,Calm,Calm,-,N/A,,Unknown,0,2013-02-25 04:35:00
11:55 PM,30.2,25.7,83,29.89,10.0,NW,6.9,-,N/A,,Unknown,310,2013-02-25 04:55:00